User: anonymous   Login
Location: Hancock Field Station
(44.9202°N, 120.4259°W)
Time: 06:31:59
(UTC-08:00)
Language:

Nadezhda 4 Rocket - Orbit

View from above orbital plane
View from above orbital plane
View from above satellite
View from above satellite

Ground track
Ground track

The orbit data is extracted from the following two-line orbital elements,

1 23180U 94041B   16339.42773181  .00000056  00000-0  39849-4 0  9995
2 23180  82.9475  75.9622 0029884  52.5978  17.6912 13.77937847126088
Epoch (UTC): 04 December 2016 10:15:56
Eccentricity: 0.0029884
inclination: 82.9475°
perigee height: 949 km
apogee height: 993 km
right ascension of ascending node: 75.9622°
argument of perigee: 52.5978°
revolutions per day: 13.77937847
mean anomaly at epoch: 17.6912°
orbit number at epoch: 12608

The dashed part of the orbit path shows where the satellite is in the earth's shadow,  

DLR